DW3794 Weather Reports


time (UTC)temp
F
wind
direction
speed
knots
gust
knots
rain 1hr
in
rain 24hr
in
rain mn
in
humidity
%
barometer
mb
20260906224523 77 171 7.8 13.9 0.00 0.00 0.00 27 1003.4
20260906223033 78 171 13.9 19.1 0.00 0.00 0.00 23 1003.6
20260906221521 80 171 7.0 16.5 0.00 0.00 0.00 21 1003.8
20260906220020 78 171 12.2 20.0 0.00 0.00 0.00 19 1003.9
20260906214521 79 171 11.3 20.0 0.00 0.00 0.00 21 1003.9
20260906213020 79 171 14.8 19.1 0.00 0.00 0.00 19 1004.1
20260906211604 80 171 7.0 14.8 0.00 0.00 0.00 20 1004.2
20260906210058 80 171 4.3 19.1 0.00 0.00 0.00 24 1004.4
20260906204541 81 171 2.6 10.4 0.00 0.00 0.00 19 1004.7
20260906203037 79 171 5.2 10.4 0.00 0.00 0.00 22 1004.5
20260906201518 79 171 4.3 11.3 0.00 0.00 0.00 20 1004.9
20260906200025 78 171 7.0 19.1 0.00 0.00 0.00 22 1005.0
20260906194614 78 171 6.1 12.2 0.00 0.00 0.00 24 1005.2
20260906193107 77 171 9.6 14.8 0.00 0.00 0.00 27 1005.5
20260906191539 76 171 11.3 16.5 0.00 0.00 0.00 28 1005.6
20260906190031 76 171 12.2 16.5 0.00 0.00 0.00 26 1005.7
20260906184510 75 171 13.0 16.5 0.00 0.00 0.00 27 1006.1
20260906183007 75 171 9.6 12.2 0.00 0.00 0.00 30 1006.4
20260906181636 74 171 7.8 10.4 0.00 0.00 0.00 31 1006.8
20260906180044 73 171 7.0 10.4 0.00 0.00 0.00 30 1007.2
20260906174547 71 171 3.5 7.8 0.00 0.00 0.00 31 1007.6
20260906173022 71 171 3.5 7.8 0.00 0.00 0.00 32 1007.9
20260906171520 70 171 4.3 7.0 0.00 0.00 0.00 32 1008.2
20260906170003 69 171 2.6 5.2 0.00 0.00 0.00 32 1008.2
20260906164605 69 171 3.5 5.2 0.00 0.00 0.00 33 1008.4
20260906163040 68 171 0.9 3.5 0.00 0.00 0.00 32 1008.4
20260906161537 67 171 0.0 4.3 0.00 0.00 0.00 35 1008.4
20260906160017 65 171 1.7 4.3 0.00 0.00 0.00 36 1008.4
20260906154530 64 171 3.5 5.2 0.00 0.00 0.00 36 1008.5
20260906153055 63 171 4.3 7.0 0.00 0.00 0.00 41 1008.6
20260906151556 61 171 4.3 7.8 0.00 0.00 0.00 43 1008.7
20260906150042 60 171 2.6 7.0 0.00 0.00 0.00 45 1008.8
20260906144552 57 171 3.5 6.1 0.00 0.00 0.00 47 1008.8
20260906143022 56 171 5.2 6.1 0.00 0.00 0.00 48 1009.0
20260906141524 55 171 2.6 5.2 0.00 0.00 0.00 57 1009.1
20260906140056 52 171 2.6 7.0 0.00 0.00 0.00 58 1009.1
20260906134552 51 171 5.2 7.8 0.00 0.00 0.00 57 1009.1
20260906133029 51 171 4.3 7.8 0.00 0.00 0.00 52 1009.2
20260906131525 49 171 9.6 13.0 0.00 0.00 0.00 58 1009.4
20260906130006 46 171 3.5 7.0 0.00 0.00 0.00 68 1009.2
20260906124506 47 171 4.3 6.1 0.00 0.00 0.00 65 1009.3
20260906123048 45 171 3.5 6.1 0.00 0.00 0.00 69 1009.4
20260906121547 46 171 1.7 7.0 0.00 0.00 0.00 65 1009.2
20260906120029 46 171 6.1 7.8 0.00 0.00 0.00 62 1009.3
20260906114543 46 171 5.2 7.0 0.00 0.00 0.00 62 1009.4
20260906113009 46 171 4.3 6.1 0.00 0.00 0.00 63 1009.3
20260906111509 48 171 4.3 6.1 0.00 0.00 0.00 62 1009.2
20260906110050 47 171 3.5 4.3 0.00 0.00 0.00 63 1009.0
20260906104556 47 171 1.7 3.5 0.00 0.00 0.00 66 1008.8
20260906103037 46 170 2.6 4.3 0.00 0.00 0.00 69 1008.6
20260906101530 47 170 3.5 5.2 0.00 0.00 0.00 62 1008.5
20260906100033 47 171 5.2 7.8 0.00 0.00 0.00 59 1008.3
20260906094551 49 171 5.2 7.0 0.00 0.00 0.00 56 1008.3
20260906093039 50 171 7.0 7.8 0.00 0.00 0.00 54 1008.1
20260906091523 53 171 3.5 7.8 0.00 0.00 0.00 47 1008.2
20260906090025 54 171 4.3 7.0 0.00 0.00 0.00 41 1007.9
20260906084521 54 171 4.3 6.1 0.00 0.00 0.00 43 1007.9
20260906083001 50 170 1.7 4.3 0.00 0.00 0.00 57 1007.7
20260906081602 51 171 3.5 7.0 0.00 0.00 0.00 54 1007.4
20260906080044 52 171 5.2 9.6 0.00 0.00 0.00 52 1007.5
20260906074541 51 170 7.0 8.7 0.00 0.00 0.00 53 1007.5
20260906073025 49 167 4.3 7.8 0.00 0.00 0.00 58 1007.6
20260906071517 50 170 4.3 7.8 0.00 0.00 0.00 57 1007.6
20260906070057 55 171 2.6 6.1 0.00 0.00 0.00 46 1007.4
20260906064556 57 168 1.7 5.2 0.00 0.00 0.00 41 1007.6
20260906063039 57 169 2.6 4.3 0.00 0.00 0.00 44 1007.3
20260906061536 54 169 2.6 3.5 0.00 0.00 0.00 61 1007.1
20260906060015 55 169 1.7 3.5 0.00 0.00 0.00 58 1007.2
20260906054514 55 169 1.7 6.1 0.00 0.00 0.00 50 1007.0
20260906053052 58 169 5.2 7.0 0.00 0.00 0.00 48 1006.8
20260906051601 59 169 3.5 6.1 0.00 0.00 0.00 41 1006.8
20260906050032 62 169 2.6 4.3 0.00 0.00 0.00 36 1006.9
20260906044532 64 169 2.6 4.3 0.00 0.00 0.00 32 1006.9
20260906043011 63 169 3.5 7.0 0.00 0.00 0.00 33 1007.0
20260906041508 61 169 1.7 8.7 0.00 0.00 0.00 39 1006.7
20260906040100 61 169 8.7 10.4 0.00 0.00 0.00 38 1006.5
20260906034545 59 169 6.1 8.7 0.00 0.00 0.00 41 1006.7
20260906033037 59 169 7.0 7.8 0.00 0.00 0.00 43 1006.7
20260906031534 59 169 6.1 7.8 0.00 0.00 0.00 43 1006.6
20260906030009 60 155 6.1 8.7 0.00 0.00 0.00 38 1006.5
20260906024517 60 157 6.1 8.7 0.00 0.00 0.00 39 1006.4
20260906023047 60 158 6.1 7.0 0.00 0.00 0.00 41 1006.3
20260906021547 61 158 4.3 7.8 0.00 0.00 0.00 37 1006.1
20260906020029 61 167 5.2 7.0 0.00 0.00 0.00 43 1005.9
20260906014540 66 171 6.1 8.7 0.00 0.00 0.00 35 1005.8
20260906013032 70 171 7.0 8.7 0.00 0.00 0.00 28 1005.9
20260906011510 72 171 6.1 8.7 0.00 0.00 0.00 31 1005.9
20260906010054 74 171 4.3 9.6 0.00 0.00 0.00 28 1005.9
20260906004603 76 171 5.2 8.7 0.00 0.00 0.00 25 1005.8
20260906003034 78 171 5.2 10.4 0.00 0.00 0.00 21 1005.7
20260906001534 78 171 8.7 11.3 0.00 0.00 0.00 22 1005.6
20260906000016 79 171 7.0 11.3 0.00 0.00 0.00 21 1005.6
20260905234515 80 171 1.7 9.6 0.00 0.00 0.00 23 1005.7
20260905233057 80 171 8.7 13.0 0.00 0.00 0.00 18 1005.4
20260905231556 80 171 7.8 12.2 0.00 0.00 0.00 22 1005.5
20260905230039 81 171 7.0 12.2 0.00 0.00 0.00 22 1005.4